Location: Caser�o Prados
(40.7553°N, 4.1992°W)
Time: 19:37:44
(UTC+00:00)

Daily predictions for brighter satellites

Satellite Brightness Start Highest point End
(mag) Time Altitude Azimuth Time Altitude Azimuth Time Altitude Azimuth
DMSP B5D2-2 4.4 19:47:56 10° N 19:53:13 77° WNW 19:58:29 10° SSW
CSL-04 Rocket 4.0 19:48:02 10° S 19:53:16 68° WSW 19:58:37 10° NNW
CZ-4 R/B 4.0 19:51:01 10° SSW 19:54:14 22° W 19:57:27 10° NW
Cosmos 1844 4.4 19:49:41 10° SSE 19:54:45 33° ESE 19:59:47 10° NE
Cosmos 968 Rocket 3.8 19:50:40 10° S 19:55:38 45° ESE 20:00:36 10° NNE
Resurs 1-3 4.5 19:51:43 10° SE 19:55:38 33° ENE 19:59:33 10° N
ERS-2 2.2 19:52:48 10° NNE 19:56:27 81° WNW 20:00:04 10° SSW
BREEZE-M DEB (TANK) 4.3 19:52:51 10° WNW 19:57:10 53° N 20:03:33 10° E
Cosmos 1743 Rocket 4.0 19:54:00 10° N 19:58:07 41° ENE 20:02:14 10° SSE
ATLAS 5 CENTAUR R/B 3.9 19:55:35 10° N 19:59:49 22° NE 20:04:34 10° E
BREEZE M DEB (TANK) 4.1 19:59:01 10° W 20:02:10 57° NNW 20:10:54 10° ENE
Cosmos 1486 Rocket 4.4 19:58:12 10° S 20:03:10 42° ESE 20:08:11 10° NNE
MetOp-A 4.3 20:00:47 10° S 20:06:07 78° WSW 20:11:31 10° NNW
Intercosmos 25 Rocket 4.5 20:01:21 10° N 20:07:19 41° ENE 20:11:06 11° SE
Cosmos 2221 2.8 20:04:46 10° SSW 20:09:02 71° W 20:13:22 10° N
S3M 4.5 20:03:56 10° SSE 20:09:49 41° E 20:15:42 10° NNE
Cosmos 1500 Rocket 3.6 20:05:47 10° N 20:10:09 58° E 20:14:25 10° SSE
BREEZE-M R/B 1.8 20:07:22 10° SW 20:10:31 88° SE 20:12:56 10° ENE
USA 186 2.3 20:09:18 10° S 20:11:51 43° W 20:14:15 10° NNW
Cosmos 1862 3.7 20:12:55 10° NNW 20:16:55 66° W 20:20:53 10° S
FALCON 9 DEB 2.9 20:14:55 10° NW 20:17:55 66° NE 20:20:03 18° ESE
Cosmos 1933 4.3 20:17:11 12° SSE 20:20:20 29° E 20:23:51 10° NNE
FALCON 9 DEB 2.7 20:21:10 10° NW 20:24:12 84° NE 20:26:04 21° SE
Cosmos 1242 Rocket 3.6 20:24:03 17° SE 20:25:51 25° E 20:28:51 10° NE
OBJECT-B 1.7 20:23:15 10° S 20:26:23 49° W 20:29:34 10° NNW
Cosmos 2208 Rocket 4.5 20:22:05 10° NNW 20:27:28 65° WSW 20:32:51 10° S
Cosmos 1553 Rocket 3.9 20:22:15 10° S 20:28:21 85° E 20:34:35 10° N
Cosmos 1437 Rocket 2.6 20:25:53 10° S 20:29:42 74° E 20:33:37 10° NNE
BREEZE M DEB (TANK) 4.5 20:24:04 10° WNW 20:30:16 27° NNW 20:32:57 10° NE
Resurs 01 Rocket 2.0 20:29:42 17° SE 20:32:54 48° ENE 20:37:11 10° N
FALCON 9 DEB 2.8 20:30:00 10° NW 20:33:02 76° NE 20:34:36 26° ESE
DELTA 2 R/B (1) 3.5 20:32:06 10° W 20:37:40 76° S 20:41:51 18° ESE
Sich 1 3.3 20:36:13 10° N 20:40:26 50° E 20:43:00 22° SSE
Cosmos 1417 Rocket 4.5 20:36:08 10° S 20:42:22 89° W 20:48:34 10° N
Meteor 1-20 Rocket 4.4 20:38:01 10° N 20:43:32 54° ENE 20:47:10 21° SSE
BREEZE-M DEB (TANK) 2.8 20:42:04 10° WNW 20:44:12 38° SSW 20:45:33 24° SSE
Cosmos 1782 3.8 20:43:16 25° ESE 20:44:25 29° E 20:47:54 10° NNE
CZ-4C R/B 4.2 20:39:06 10° NNW 20:45:07 28° NE 20:51:18 12° E
ERS-1 Rocket 4.5 20:50:52 17° E 20:52:44 21° ENE 20:56:27 10° NNE
Cosmos 1503 Rocket 3.9 20:48:49 10° S 20:53:55 69° ESE 20:59:06 10° NNE
SPOT 5 4.5 20:52:52 18° E 20:54:44 22° ENE 20:58:39 10° NNE
Intercosmos 24 3.7 20:52:32 10° S 20:56:38 82° W 21:00:12 10° N
Cosmos 1151 Rocket 3.3 20:58:03 30° SSE 20:59:46 46° E 21:03:58 10° NNE
USA 290 2.3 20:59:17 10° NNW 21:02:29 56° ENE 21:02:57 49° ESE
Terra 3.5 21:02:22 16° E 21:03:34 18° ENE 21:06:42 10° NNE
Cosmos 1602 4.0 21:01:43 10° N 21:05:28 50° E 21:06:20 41° ESE
Cosmos 2278 Rocket 3.1 21:05:44 26° ESE 21:06:06 26° ESE 21:10:43 10° NE
FALCON 9 DEB 3.6 21:04:36 10° WNW 21:07:28 39° SW 21:07:47 38° SSW
Ariane Rocket 4.1 21:02:47 10° S 21:07:32 41° W 21:12:19 10° NNW
Meteor 1-25 Rocket 4.3 21:07:33 10° N 21:13:26 88° W 21:17:00 25° S
CZ-2C R/B 3.6 21:09:55 10° NNE 21:14:24 89° ESE 21:17:35 20° SSW
Cosmos 1515 Rocket 4.4 21:17:35 32° E 21:17:35 32° E 21:21:28 10° NNE
Cosmos 1844 Rocket 4.0 21:13:03 10° SW 21:18:16 41° WNW 21:23:32 10° N
Cosmos 2084 3.4 21:17:53 46° SSE 21:18:40 55° ESE 21:22:47 10° NE
SPOT 1/Viking Rocket 3.5 21:16:47 34° SSE 21:19:05 76° ENE 21:24:18 10° N
X-37B 1.7 21:16:24 10° WNW 21:19:26 41° N 21:20:10 35° NE
SL-4 R/B 2.7 21:15:29 10° WNW 21:19:50 51° SW 21:21:08 38° S
MetOp-B 4.1 21:18:14 29° S 21:21:05 83° WSW 21:26:29 10° NNW
ARIANE 5 R/B 2.8 21:20:40 43° ESE 21:21:32 51° ENE 21:25:45 10° N
Cosmos 1437 4.1 21:25:47 25° NNE 21:25:47 25° NNE 21:27:12 10° NNE
Cosmos 1354 Rocket 4.2 21:20:01 10° SSW 21:25:14 73° WNW 21:30:29 10° NNE
JB-3 4.3 21:24:10 10° NNE 21:27:56 56° E 21:27:56 56° E
Cosmos 1633 Rocket 2.9 21:25:55 10° N 21:30:21 87° E 21:31:23 53° S
Cosmos 1812 3.4 21:31:31 40° ENE 21:31:31 40° ENE 21:34:36 10° NNE
SPOT 3 Rocket 4.3 21:29:39 22° SSW 21:32:44 48° W 21:37:44 10° NNW
Landsat 7 4.4 21:31:29 27° SSW 21:33:49 51° W 21:38:28 10° NNW
Cosmos 1328 Rocket 3.6 21:36:49 43° SSW 21:38:14 80° W 21:42:40 10° N
Cosmos 1470 Rocket 3.6 21:35:09 10° N 21:39:37 61° E 21:39:56 59° ESE
Meteor 1-5 Rocket 4.3 21:35:52 10° N 21:41:08 51° ENE 21:42:00 46° ESE
Cosmos 1709 Rocket 4.1 21:35:19 10° NNW 21:41:25 71° W 21:44:27 31° S
CARTOSAT-1 3.4 21:44:08 71° SSE 21:44:34 86° E 21:48:54 10° NNW
ATLAS 5 CENTAUR R/B 2.4 21:39:14 10° NW 21:45:03 85° WSW 21:47:13 45° SSE
Cosmos 2074 Rocket 4.3 21:41:56 10° N 21:48:02 49° ENE 21:49:23 43° ESE
NOSS 3-3 (A) 4.0 21:43:50 10° SW 21:49:28 72° NW 21:55:54 10° NNE
NOSS 3-3 (C) 4.0 21:43:55 10° SW 21:49:34 73° NW 21:56:00 10° NNE
Cosmos 1666 3.8 21:49:36 10° N 21:52:11 35° NE 21:52:11 35° NE
Cosmos 1933 Rocket 3.8 21:49:52 10° N 21:53:49 54° ENE 21:53:49 54° ENE
Cosmos 1833 Rocket 3.0 21:49:11 10° NNW 21:54:42 53° ENE 21:55:42 47° E
ATLAS 2AS CENTAUR R/B 4.4 21:50:13 10° NNW 21:56:08 25° NE 22:00:31 14° E
Meteor 1-14 Rocket 4.3 21:51:18 10° NNW 21:57:12 80° W 21:58:49 49° S
BREEZE-M DEB (TANK) 4.4 21:57:20 10° NNW 21:57:58 13° N 21:57:58 13° N
Iridium 4 Rocket 3.6 22:01:47 60° SSE 22:02:50 79° E 22:08:43 10° N
Cosmos 1538 Rocket 4.2 21:58:11 10° NNW 22:03:30 57° ENE 22:03:56 55° E
Resurs 01 Rocket 4.1 22:07:15 11° SW 22:09:38 15° W 22:12:18 10° NW
SJ 16-02 1.8 22:15:14 56° NNE 22:15:14 56° NNE 22:18:47 10° NNE
Spot 2 Rocket 4.3 22:14:23 37° SW 22:15:27 42° W 22:20:15 10° NNW
Cosmos 2228 Rocket 3.8 22:17:34 44° NE 22:17:34 44° NE 22:20:48 10° NNE
Cosmos 773 Rocket 4.3 22:11:22 10° NNW 22:16:34 57° WSW 22:17:09 54° SW
Meteor 1-27 Rocket 3.9 22:18:37 56° E 22:18:37 56° E 22:24:17 10° NNE
USA 306 4.5 22:18:58 10° NNW 22:22:42 28° NNE 22:23:05 28° NE
DELTA 2 R/B (1) 4.5 22:18:38 10° W 22:22:36 35° SW 22:22:36 35° SW
Meteor 2-6 Rocket 4.5 22:23:23 47° SW 22:24:40 59° WNW 22:30:05 10° N
COSMOS 2406 3.0 22:19:46 10° NNW 22:25:28 87° WSW 22:25:47 81° S
Cosmos 2082 Rocket 2.6 22:22:38 10° NNW 22:28:06 50° ENE 22:28:19 50° ENE
Milstar 3 4.1 22:20:34 10° WSW 22:29:42 35° SSW 22:29:42 35° SSW
ERS-1 Rocket 3.6 22:30:51 45° WSW 22:31:10 46° W 22:36:01 10° NNW
SL-24 DEB 4.5 22:31:53 64° N 22:31:53 64° N 22:35:48 10° N
SPOT 5 3.6 22:32:05 45° WSW 22:32:25 46° W 22:37:23 10° NNW
Cosmos 1271 Rocket 4.0 22:35:28 41° NNW 22:35:28 41° NNW 22:38:19 10° N
CZ-4C R/B 3.0 22:27:00 10° NW 22:34:30 86° WSW 22:36:28 57° SSE
H-2A R/B 4.3 22:30:40 10° N 22:34:17 48° NW 22:34:17 48° NW
Terra 2.4 22:41:15 50° W 22:41:15 50° W 22:45:32 10° NNW
Meteor 1-11 Rocket 3.7 22:39:03 10° N 22:45:03 83° W 22:45:14 82° SW
Cosmos 1295 Rocket 4.4 22:39:05 10° N 22:45:27 77° E 22:45:45 75° ESE
USA 307 4.3 22:44:11 10° NW 22:47:31 35° N 22:47:31 35° N
Cosmos 2278 Rocket 3.2 22:47:29 28° WSW 22:49:54 43° WNW 22:55:18 10° N
Cosmos 1898 Rocket 4.3 22:57:39 44° NE 22:57:39 44° NE 23:01:25 10° NNE
Cosmos 923 Rocket 4.3 22:51:20 10° NNW 22:55:53 63° NNE 22:55:53 63° NNE
Cosmos 2369 Rocket 4.2 23:03:28 16° ENE 23:03:28 16° ENE 23:05:12 10° NE
Cosmos 1536 4.5 22:57:11 10° NNW 22:59:30 33° NNW 22:59:30 33° NNW
USA 308 4.4 22:57:36 10° NW 23:00:30 35° N 23:00:30 35° N
Cosmos 1943 Rocket 3.2 23:11:55 37° ENE 23:11:55 37° ENE 23:15:31 10° NNE
SL-8 Rocket 4.2 23:05:32 10° N 23:11:34 58° ENE 23:11:34 58° ENE
ALOS 2 4.3 23:16:05 28° NNE 23:16:05 28° NNE 23:18:38 10° N
Cosmos 2154 Rocket 4.4 23:11:27 10° NNW 23:17:31 51° W 23:17:50 50° W
Cosmos 44 4.4 23:16:02 10° NNW 23:20:48 42° NE 23:20:48 42° NE
ATLAS 5 CENTAUR R/B 4.5 23:25:54 10° WNW 23:28:44 15° WSW 23:28:44 15° WSW
NOSS 3-4 (A) 3.9 23:27:16 10° NW 23:34:24 68° WSW 23:34:27 68° WSW
NOSS 3-4 (C) 3.9 23:27:23 10° NW 23:34:30 68° WSW 23:34:34 68° WSW
Cosmos 1238 Rocket 4.0 23:31:09 10° N 23:36:39 68° NNW 23:36:39 68° NNW
Cosmos 1833 Rocket 4.5 23:34:02 10° NW 23:37:23 21° W 23:37:23 21° W
SeaSat 1 4.2 23:36:09 10° NE 23:38:19 24° NE 23:38:19 24° NE
USA 215 4.0 23:42:20 33° E 23:44:56 49° NNE 23:51:09 10° NW
Cosmos 2297 4.1 23:45:50 58° NW 23:45:50 58° NW 23:50:56 10° NNE
ATLAS 2AS CENTAUR R/B 2.6 23:40:47 10° NW 23:47:56 86° NW 23:47:56 86° NW
Cosmos 2181 Rocket 4.1 23:52:11 65° NW 23:52:11 65° NW 23:57:54 10° N
SJ 16-02 4.2 23:52:41 10° WNW 23:53:31 10° NW 23:54:21 10° NW
